QPF
0.07 0.10 0.09 0.07 0.08 0.09 0.09 0.08 0.08 0.06 0.07 0.07 0.06 0.05 0.02 0.01 0.02 0.02 0.02 0.03 0.04 0.05 0.04 0.04 0.04 0.04 0.04 0.03 0.03 0.03 0.03 0.04 0.05 0.05 0.04 0.04 0.04 0.04
0.04 0.05 0.05 0.06 0.06 0.06 0.06 0.08 0.09 0.08 0.07 0.07 0.06 0.04 0.03 0.03 0.03 0.03 0.02 0.02 0.02 0.03 0.02 0.03 0.03 0.03 0.03 0.03 0.03 0.03 0.03 0.03 0.03 0.03 0.02 0.03 0.02 0.02
0.03 0.02 0.03 0.05 0.05 0.05 0.05 0.06 0.07 0.07 0.06 0.05 0.05 0.06 0.06 0.05 0.04 0.03 0.02 0.02 0.03 0.03 0.03 0.03 0.04 0.04 0.04 0.04 0.03 0.03 0.02 0.02 0.02 0.02 0.02 0.02 0.02 0.02
0.02 0.02 0.02 0.03 0.03 0.04 0.04 0.05 0.05 0.05 0.06 0.05 0.05 0.05 0.06 0.06 0.06 0.06 0.05 0.05 0.04 0.04 0.04 0.04 0.04 0.04 0.05 0.04 0.04 0.04 0.04 0.03 0.03 0.02 0.02 0.02 0.02 0.02
0.03 0.03 0.03 0.03 0.02 0.03 0.04 0.05 0.06 0.06 0.07 0.07 0.07 0.08 0.09 0.09 0.09 0.10 0.09 0.08 0.07 0.06 0.05 0.05 0.05 0.06 0.05 0.05 0.04 0.04 0.04 0.04 0.03 0.02 0.02 0.02 0.03 0.03
0.03 0.03 0.02 0.02 0.02 0.02 0.04 0.05 0.05 0.07 0.08 0.09 0.09 0.09 0.08 0.08 0.10 0.11 0.10 0.09 0.08 0.06 0.06 0.06 0.07 0.07 0.07 0.07 0.06 0.07 0.07 0.07 0.05 0.03 0.03 0.02 0.02 0.02
0.03 0.02 0.01 0.01 0.02 0.02 0.03 0.04 0.04 0.05 0.07 0.09 0.10 0.10 0.08 0.08 0.10 0.13 0.12 0.10 0.08 0.07 0.06 0.06 0.07 0.07 0.07 0.07 0.07 0.07 0.07 0.06 0.05 0.04 0.03 0.02 0.02 0.02
0.01 0.01 0.01 0.01 0.01 0.01 0.01 0.01 0.02 0.03 0.03 0.04 0.07 0.08 0.08 0.08 0.09 0.11 0.13 0.10 0.09 0.08 0.08 0.09 0.09 0.09 0.09 0.07 0.08 0.07 0.07 0.06 0.05 0.04 0.02 0.02 0.02 0.01
0.01 0.01 0.01 0.01 0.01 0.01 0.01 0.01 0.01 0.02 0.02 0.02 0.03 0.06 0.06 0.06 0.07 0.07 0.06 0.06 0.06 0.07 0.06 0.07 0.09 0.10 0.10 0.10 0.10 0.09 0.08 0.06 0.05 0.04 0.04 0.03 0.02 0.02
0.01 0.01 0.01 0.02 0.03 0.02 0.01 0.01 0.01 0.02 0.02 0.01 0.02 0.03 0.04 0.04 0.03 0.03 0.03 0.03 0.03 0.03 0.03 0.04 0.05 0.05 0.05 0.05 0.06 0.05 0.05 0.05 0.05 0.04 0.04 0.03 0.02 0.02
0.01 0.01 0.01 0.02 0.03 0.04 0.03 0.03 0.03 0.02 0.02 0.02 0.02 0.02 0.03 0.03 0.03 0.02 0.02 0.02 0.02 0.02 0.02 0.03 0.03 0.03 0.02 0.02 0.02 0.03 0.03 0.03 0.04 0.03 0.03 0.02 0.02 0.01
0.01 0.01 0.02 0.02 0.03 0.04 0.05 0.06 0.05 0.05 0.04 0.04 0.04 0.04 0.03 0.02 0.02 0.02 0.02 0.02 0.03 0.02 0.02 0.02 0.02 0.01 0.01 0.01 0.01 0.01 0.01 0.01 0.01 0.01 0.01 0.01 0.01 0.01
0.01 0.01 0.01 0.01 0.02 0.03 0.03 0.03 0.03 0.02 0.01 0.01 0.02 0.02 0.02 0.02 0.02 0.02 0.02 0.02 0.02 0.02 0.01 0.01 0.01 0.01 0.01 0.01 0.00 0.00 0.00 0.01 0.01 0.01 0.01 0.01 0.01 0.01
0.00 0.00 0.01 0.01 0.01 0.01 0.01 0.02 0.02 0.01 0.01 0.01 0.01 0.01 0.01 0.00 0.00 0.01 0.01 0.01 0.01 0.01 0.01 0.01 0.00 0.00 0.00 0.01 0.00 0.00 0.00 0.00 0.01 0.01 0.01 0.01 0.01 0.01
0.00 0.00 0.01 0.01 0.01 0.01 0.01 0.01 0.01 0.00 0.01 0.01 0.00 0.00 0.00 0.00 0.01 0.01 0.00 0.00 0.00 0.00 0.00 0.00 0.00 0.00 0.00 0.00 0.00 0.00 0.00 0.00 0.00 0.01 0.01 0.01 0.01 0.01
0.01 0.01 0.01 0.00 0.00 0.00 0.00 0.00 0.00 0.00 0.00 0.00 0.00 0.00 0.00 0.00 0.00 0.00 0.00 0.00 0.00 0.00 0.00 0.00 0.00 0.00 0.00 0.00 0.00 0.00 0.00 0.00 0.00 0.00 0.00 0.00 0.00 0.01
0.01 0.01 0.00 0.00 0.00 0.00 0.00 0.00 0.00 0.00 0.00 0.00 0.00 0.00 0.00 0.00 0.00 0.00 0.00 0.00 0.00 0.00 0.00 0.00 0.00 0.00 0.00 0.00 0.00 0.00 0.00 0.00 0.00 0.00 0.00 0.01 0.01 0.01
0.01 0.00 0.00 0.00 0.00 0.00 0.00 0.00 0.00 0.00 0.00 0.00 0.00 0.00 0.00 0.00 0.00 0.00 0.00 0.00 0.00 0.00 0.00 0.00 0.00 0.00 0.00 0.00 0.00 0.00 0.00 0.00 0.00 0.01 0.01 0.01 0.01 0.02
0.01 0.01 0.01 0.01 0.01 0.00 0.00 0.00 0.00 0.00 0.00 0.00 0.00 0.00 0.00 0.00 0.00 0.00 0.00 0.00 0.00 0.01 0.01 0.00 0.00 0.00 0.00 0.00 0.00 0.00 0.00 0.01 0.02 0.01 0.01 0.01 0.02 0.02
0.01 0.01 0.01 0.01 0.01 0.01 0.00 0.00 0.00 0.00 0.00 0.00 0.00 0.01 0.01 0.01 0.00 0.00 0.00 0.01 0.01 0.01 0.01 0.00 0.00 0.00 0.01 0.01 0.01 0.01 0.02 0.02 0.02 0.01 0.01 0.02 0.02 0.02
0.02 0.02 0.02 0.02 0.01 0.01 0.01 0.01 0.01 0.01 0.01 0.01 0.01 0.01 0.01 0.01 0.01 0.01 0.01 0.02 0.02 0.01 0.01 0.01 0.01 0.01 0.01 0.02 0.01 0.01 0.03 0.03 0.02 0.01 0.01 0.01 0.02 0.02
0.03 0.03 0.03 0.03 0.03 0.02 0.02 0.02 0.01 0.01 0.01 0.01 0.01 0.01 0.02 0.02 0.02 0.02 0.02 0.02 0.02 0.02 0.02 0.02 0.01 0.01 0.02 0.02 0.01 0.01 0.02 0.02 0.02 0.01 0.01 0.01 0.02 0.02
0.03 0.04 0.04 0.04 0.04 0.03 0.03 0.02 0.02 0.01 0.01 0.01 0.01 0.01 0.01 0.01 0.01 0.01 0.02 0.02 0.02 0.02 0.01 0.01 0.01 0.01 0.01 0.01 0.01 0.01 0.01 0.01 0.01 0.02 0.02 0.01 0.01 0.02
MSLP
1018.95 1018.73 1018.64 1018.69 1018.87 1019.19 1019.63 1020.17 1020.78 1021.44 1022.12 1022.77 1023.36 1023.84 1024.20 1024.40 1024.45 1024.36 1024.15 1023.88 1023.58 1023.30 1023.08 1022.92 1022.84 1022.82 1022.84 1022.87 1022.89 1022.88 1022.83 1022.74 1022.62 1022.48 1022.33 1022.17 1022.01 1021.84
1019.39 1019.12 1018.95 1018.89 1018.97 1019.19 1019.55 1020.05 1020.65 1021.34 1022.08 1022.83 1023.54 1024.16 1024.65 1024.98 1025.15 1025.16 1025.04 1024.83 1024.58 1024.33 1024.12 1023.98 1023.90 1023.88 1023.90 1023.92 1023.94 1023.91 1023.85 1023.74 1023.59 1023.41 1023.22 1023.02 1022.81 1022.60
1019.92 1019.62 1019.40 1019.27 1019.27 1019.41 1019.70 1020.14 1020.72 1021.41 1022.18 1022.98 1023.77 1024.47 1025.05 1025.47 1025.73 1025.81 1025.77 1025.61 1025.40 1025.19 1025.00 1024.87 1024.80 1024.79 1024.80 1024.83 1024.84 1024.82 1024.74 1024.62 1024.46 1024.27 1024.05 1023.82 1023.58 1023.34
1020.49 1020.21 1019.97 1019.82 1019.77 1019.85 1020.09 1020.47 1021.01 1021.68 1022.44 1023.25 1024.06 1024.79 1025.42 1025.89 1026.19 1026.33 1026.33 1026.22 1026.05 1025.87 1025.71 1025.60 1025.55 1025.54 1025.57 1025.60 1025.62 1025.59 1025.52 1025.40 1025.24 1025.04 1024.81 1024.57 1024.32 1024.07
1021.06 1020.83 1020.63 1020.48 1020.41 1020.47 1020.66 1021.00 1021.48 1022.10 1022.82 1023.60 1024.38 1025.10 1025.72 1026.20 1026.52 1026.69 1026.72 1026.66 1026.53 1026.39 1026.27 1026.19 1026.16 1026.17 1026.21 1026.25 1026.27 1026.25 1026.19 1026.07 1025.92 1025.72 1025.51 1025.28 1025.03 1024.79
1021.59 1021.43 1021.29 1021.17 1021.12 1021.17 1021.34 1021.63 1022.06 1022.61 1023.26 1023.96 1024.67 1025.33 1025.92 1026.37 1026.69 1026.88 1026.94 1026.92 1026.84 1026.75 1026.68 1026.64 1026.64 1026.68 1026.73 1026.78 1026.80 1026.78 1026.72 1026.62 1026.47 1026.30 1026.11 1025.90 1025.68 1025.46
1022.05 1021.97 1021.89 1021.83 1021.82 1021.87 1022.02 1022.27 1022.64 1023.10 1023.66 1024.26 1024.88 1025.46 1025.97 1026.39 1026.69 1026.88 1026.97 1027.00 1026.98 1026.95 1026.94 1026.95 1026.99 1027.05 1027.11 1027.16 1027.18 1027.17 1027.11 1027.01 1026.89 1026.73 1026.57 1026.40 1026.23 1026.04
1022.40 1022.39 1022.38 1022.38 1022.41 1022.48 1022.62 1022.83 1023.13 1023.51 1023.96 1024.45 1024.96 1025.44 1025.88 1026.24 1026.52 1026.72 1026.84 1026.92 1026.96 1027.00 1027.05 1027.11 1027.18 1027.27 1027.34 1027.39 1027.40 1027.38 1027.31 1027.22 1027.11 1026.99 1026.87 1026.74 1026.61 1026.48
1022.64 1022.70 1022.75 1022.80 1022.86 1022.95 1023.08 1023.26 1023.50 1023.79 1024.14 1024.52 1024.92 1025.31 1025.66 1025.97 1026.23 1026.43 1026.58 1026.70 1026.80 1026.90 1027.00 1027.11 1027.22 1027.32 1027.39 1027.44 1027.44 1027.40 1027.33 1027.24 1027.15 1027.05 1026.96 1026.89 1026.81 1026.73
1022.78 1022.89 1022.98 1023.08 1023.17 1023.28 1023.40 1023.54 1023.73 1023.95 1024.20 1024.48 1024.78 1025.08 1025.37 1025.63 1025.86 1026.06 1026.23 1026.39 1026.54 1026.69 1026.83 1026.98 1027.11 1027.21 1027.28 1027.31 1027.30 1027.25 1027.17 1027.08 1026.99 1026.92 1026.86 1026.83 1026.81 1026.78
1022.84 1022.98 1023.11 1023.24 1023.36 1023.47 1023.59 1023.71 1023.85 1024.01 1024.19 1024.39 1024.61 1024.84 1025.06 1025.29 1025.49 1025.69 1025.87 1026.05 1026.23 1026.41 1026.58 1026.74 1026.88 1026.99 1027.05 1027.07 1027.04 1026.97 1026.88 1026.79 1026.70 1026.65 1026.62 1026.62 1026.64 1026.66
1022.83 1022.99 1023.16 1023.31 1023.45 1023.57 1023.68 1023.79 1023.90 1024.01 1024.14 1024.29 1024.45 1024.62 1024.81 1024.99 1025.18 1025.36 1025.55 1025.73 1025.92 1026.11 1026.29 1026.45 1026.59 1026.69 1026.75 1026.76 1026.72 1026.64 1026.55 1026.45 1026.37 1026.31 1026.30 1026.32 1026.36 1026.42
1022.76 1022.94 1023.13 1023.30 1023.46 1023.59 1023.70 1023.80 1023.89 1023.98 1024.08 1024.19 1024.32 1024.46 1024.61 1024.77 1024.94 1025.10 1025.28 1025.46 1025.64 1025.82 1025.99 1026.15 1026.29 1026.38 1026.44 1026.44 1026.41 1026.33 1026.24 1026.15 1026.06 1026.01 1025.99 1026.01 1026.06 1026.12
1022.60 1022.81 1023.02 1023.21 1023.38 1023.52 1023.64 1023.74 1023.82 1023.91 1024.00 1024.09 1024.21 1024.33 1024.47 1024.61 1024.76 1024.91 1025.07 1025.23 1025.40 1025.56 1025.72 1025.87 1026.00 1026.10 1026.16 1026.18 1026.16 1026.10 1026.02 1025.93 1025.84 1025.78 1025.74 1025.74 1025.77 1025.82
1022.35 1022.59 1022.81 1023.02 1023.20 1023.36 1023.48 1023.59 1023.68 1023.77 1023.86 1023.97 1024.08 1024.20 1024.33 1024.47 1024.61 1024.75 1024.89 1025.03 1025.18 1025.32 1025.47 1025.62 1025.75 1025.86 1025.94 1025.98 1025.99 1025.96 1025.90 1025.82 1025.73 1025.65 1025.59 1025.56 1025.55 1025.57
1022.00 1022.25 1022.49 1022.72 1022.91 1023.08 1023.22 1023.34 1023.44 1023.55 1023.65 1023.77 1023.90 1024.03 1024.17 1024.31 1024.45 1024.58 1024.70 1024.83 1024.96 1025.09 1025.23 1025.38 1025.52 1025.65 1025.76 1025.84 1025.88 1025.89 1025.86 1025.79 1025.71 1025.62 1025.53 1025.45 1025.40 1025.36
1021.53 1021.80 1022.05 1022.29 1022.50 1022.68 1022.83 1022.96 1023.09 1023.21 1023.34 1023.48 1023.63 1023.78 1023.94 1024.09 1024.23 1024.36 1024.48 1024.60 1024.72 1024.84 1024.98 1025.13 1025.28 1025.44 1025.58 1025.70 1025.80 1025.84 1025.84 1025.80 1025.73 1025.62 1025.51 1025.39 1025.29 1025.20
1020.97 1021.25 1021.52 1021.76 1021.98 1022.16 1022.33 1022.47 1022.62 1022.76 1022.92 1023.09 1023.26 1023.45 1023.63 1023.80 1023.95 1024.09 1024.21 1024.33 1024.45 1024.57 1024.71 1024.86 1025.03 1025.21 1025.38 1025.54 1025.67 1025.76 1025.80 1025.78 1025.72 1025.61 1025.48 1025.33 1025.18 1025.05
1020.37 1020.65 1020.91 1021.16 1021.38 1021.58 1021.75 1021.91 1022.08 1022.25 1022.43 1022.63 1022.84 1023.05 1023.26 1023.45 1023.62 1023.78 1023.91 1024.04 1024.15 1024.28 1024.42 1024.57 1024.75 1024.95 1025.14 1025.33 1025.49 1025.61 1025.68 1025.69 1025.64 1025.54 1025.40 1025.23 1025.05 1024.88
1019.78 1020.04 1020.30 1020.54 1020.77 1020.97 1021.16 1021.34 1021.52 1021.72 1021.93 1022.15 1022.39 1022.63 1022.87 1023.09 1023.28 1023.46 1023.60 1023.74 1023.86 1023.99 1024.13 1024.29 1024.46 1024.66 1024.86 1025.06 1025.24 1025.37 1025.46 1025.49 1025.46 1025.38 1025.24 1025.07 1024.88 1024.69
1019.25 1019.49 1019.74 1019.97 1020.20 1020.40 1020.59 1020.79 1020.99 1021.21 1021.45 1021.70 1021.97 1022.23 1022.49 1022.74 1022.96 1023.15 1023.32 1023.46 1023.59 1023.72 1023.86 1024.02 1024.19 1024.38 1024.57 1024.76 1024.94 1025.08 1025.18 1025.22 1025.20 1025.13 1025.01 1024.85 1024.67 1024.48
1018.83 1019.05 1019.27 1019.49 1019.71 1019.91 1020.12 1020.33 1020.54 1020.78 1021.04 1021.31 1021.59 1021.88 1022.16 1022.42 1022.67 1022.88 1023.07 1023.23 1023.37 1023.51 1023.65 1023.79 1023.95 1024.12 1024.30 1024.47 1024.63 1024.76 1024.85 1024.90 1024.90 1024.84 1024.74 1024.60 1024.44 1024.26
1018.53 1018.72 1018.93 1019.13 1019.34 1019.54 1019.75 1019.97 1020.19 1020.44 1020.70 1020.98 1021.28 1021.57 1021.87 1022.15 1022.41 1022.64 1022.84 1023.02 1023.18 1023.33 1023.47 1023.62 1023.77 1023.92 1024.07 1024.22 1024.35 1024.46 1024.54 1024.58 1024.58 1024.54 1024.46 1024.34 1024.19 1024.03
Thickness
5728 5728 5726 5725 5723 5721 5718 5715 5709 5701 5698 5697 5696 5695 5694 5693 5692 5692 5690 5689 5687 5685 5683 5681 5679 5677 5674 5672 5670 5668 5666 5664 5662 5661 5660 5658 5658 5656
5726 5725 5723 5722 5721 5719 5717 5714 5712 5706 5698 5696 5693 5691 5690 5688 5686 5685 5683 5682 5680 5678 5676 5673 5671 5669 5667 5664 5662 5660 5658 5656 5654 5652 5651 5650 5648 5647
5722 5721 5720 5719 5717 5716 5714 5712 5709 5705 5698 5692 5689 5686 5684 5682 5680 5679 5676 5674 5672 5670 5667 5665 5663 5661 5658 5655 5653 5651 5649 5647 5645 5643 5642 5640 5638 5637
5717 5716 5715 5714 5712 5711 5709 5707 5704 5701 5697 5689 5684 5681 5679 5676 5674 5672 5669 5666 5664 5661 5659 5656 5654 5652 5649 5646 5644 5642 5639 5637 5635 5633 5631 5630 5628 5626
5712 5711 5709 5708 5707 5705 5703 5701 5698 5695 5691 5685 5679 5675 5673 5670 5667 5665 5661 5658 5656 5653 5650 5647 5645 5643 5639 5637 5634 5632 5630 5627 5625 5622 5620 5618 5616 5614
5706 5705 5704 5703 5701 5699 5697 5694 5691 5687 5683 5679 5674 5669 5666 5662 5660 5657 5653 5649 5647 5644 5641 5638 5635 5632 5630 5627 5624 5622 5619 5617 5614 5612 5609 5607 5604 5603
5700 5699 5697 5697 5696 5694 5691 5687 5684 5680 5676 5672 5667 5663 5658 5655 5652 5649 5645 5641 5638 5635 5632 5629 5626 5623 5620 5617 5614 5611 5609 5606 5604 5601 5598 5596 5593 5591
5693 5692 5691 5690 5688 5687 5684 5681 5679 5675 5670 5665 5660 5656 5652 5648 5645 5642 5638 5635 5631 5626 5623 5620 5616 5613 5610 5607 5605 5602 5599 5596 5593 5590 5587 5584 5582 5580
5687 5686 5684 5682 5680 5679 5676 5674 5670 5667 5664 5660 5655 5650 5646 5642 5638 5635 5631 5627 5623 5619 5615 5612 5608 5605 5601 5598 5596 5593 5589 5586 5583 5580 5577 5574 5571 5569
5680 5678 5677 5674 5673 5671 5669 5665 5662 5659 5656 5653 5649 5645 5641 5636 5633 5629 5624 5619 5615 5610 5607 5603 5599 5595 5593 5590 5587 5584 5581 5577 5574 5571 5568 5565 5562 5560
5673 5672 5670 5668 5666 5664 5662 5658 5654 5650 5648 5645 5642 5638 5634 5630 5626 5622 5617 5613 5608 5604 5598 5595 5591 5588 5585 5582 5579 5576 5572 5569 5566 5563 5560 5556 5553 5550
5667 5665 5663 5661 5659 5657 5654 5651 5647 5643 5640 5638 5634 5630 5627 5623 5619 5615 5611 5606 5602 5597 5591 5587 5583 5579 5578 5574 5570 5567 5564 5560 5557 5554 5551 5548 5545 5541
5661 5658 5656 5655 5652 5649 5647 5644 5640 5636 5633 5630 5626 5622 5619 5615 5611 5606 5602 5599 5595 5590 5585 5579 5576 5571 5568 5565 5562 5558 5555 5552 5549 5546 5543 5540 5537 5533
5656 5653 5651 5649 5646 5643 5639 5636 5633 5630 5627 5623 5619 5615 5611 5607 5603 5599 5595 5590 5586 5582 5577 5572 5568 5564 5560 5557 5554 5550 5547 5543 5540 5537 5535 5532 5529 5526
5651 5648 5645 5642 5640 5636 5632 5629 5626 5622 5619 5615 5611 5606 5602 5599 5595 5591 5587 5583 5579 5574 5570 5565 5560 5556 5552 5549 5545 5542 5538 5536 5532 5529 5526 5524 5521 5518
5644 5641 5639 5636 5633 5629 5625 5622 5618 5614 5611 5607 5603 5599 5595 5591 5588 5584 5580 5575 5571 5567 5562 5557 5552 5548 5544 5540 5536 5533 5529 5527 5524 5521 5518 5516 5513 5510
5639 5635 5632 5629 5625 5622 5618 5614 5611 5607 5603 5599 5595 5592 5588 5584 5580 5575 5571 5567 5563 5559 5554 5549 5544 5540 5536 5532 5529 5526 5523 5520 5517 5513 5510 5509 5507 5504
5633 5629 5626 5622 5619 5615 5612 5608 5604 5600 5596 5592 5588 5584 5580 5577 5572 5567 5562 5558 5554 5550 5546 5541 5536 5533 5529 5525 5520 5518 5516 5512 5509 5505 5502 5501 5501 5498
5627 5624 5620 5616 5612 5609 5605 5601 5597 5593 5589 5585 5581 5577 5573 5569 5565 5560 5555 5550 5546 5541 5537 5532 5528 5525 5522 5520 5517 5510 5507 5505 5501 5498 5495 5492 5492 5492
5621 5617 5613 5610 5606 5602 5599 5595 5590 5586 5581 5578 5574 5570 5565 5561 5557 5552 5548 5542 5538 5534 5529 5525 5520 5516 5513 5511 5508 5504 5500 5496 5494 5492 5489 5486 5484 5483
5614 5611 5607 5604 5600 5596 5592 5587 5583 5578 5574 5570 5566 5562 5558 5553 5549 5544 5540 5534 5530 5526 5523 5519 5514 5508 5504 5501 5500 5498 5494 5490 5487 5484 5482 5480 5480 5478
5608 5605 5601 5597 5593 5589 5584 5580 5576 5571 5567 5563 5559 5554 5550 5545 5540 5536 5532 5527 5523 5519 5515 5511 5506 5502 5498 5496 5494 5492 5488 5485 5481 5477 5474 5472 5471 5472
5601 5597 5593 5589 5585 5581 5577 5572 5568 5564 5559 5555 5550 5546 5541 5536 5532 5528 5523 5519 5515 5511 5507 5504 5499 5495 5492 5488 5486 5483 5481 5478 5476 5473 5471 5467 5464 5462